Flag for Brazil Weather past 2 weeks in Santos, São Paulo, Brazil

Now
64 °F

Overcast.


Feels Like: 64 °F
Forecast: 65 / 70 °F
Wind: 15 mph from South

Location: Sao Paulo Airport

Current Time: Oct 1, 2014 at 10:17:40 PM

Latest Report: Oct 1, 2014 at 10:00 PM


Visibility: N/A

Pressure: 30.21 "Hg

Humidity: 78%

Dew point: 57 °F

Location of SantosLocation

Historic Weather in Santos — Graph

°F

Santos temperature yesterday

Maximum temperature yesterday: 86 °F (at 4:00 PM)
Minimum temperature yesterday: 68 °F (at 2:00 AM)
Average temperature yesterday: 76 °F

Past Weeks' High & Low Weather Summary

 TemperatureHumidityPressure
High88 °F (Sep 24, 1:00 PM)100% (Sep 28, 6:00 PM)30.27 "Hg (Sep 28, 6:00 PM)
Low48 °F (Sep 28, 6:00 PM)22% (Sep 24, 1:00 PM)29.98 "Hg (Sep 19, 4:00 AM)
Average67 °F72%30.10 "Hg
* Reported Sep 16 9:00 PM — Oct 1 9:00 PM, Santos, Weather by CustomWeather, © 2014

Note: Actual official high and low records may vary slightly from our data, if they occured in-between our weather recording intervals... More about our weather records

Advertising

Santos weather history for previous 24 hours

 ConditionsComfort  
Time TempWeatherWind HumidityBarometerVisibility
9:00 PM
Oct 1
66 °FPartly cloudy.14 mph73%30.21 "HgN/A
8:00 PM66 °FPassing clouds.16 mph73%30.18 "HgN/A
7:00 PM66 °FMostly cloudy.21 mph73%30.15 "HgN/A
6:00 PM68 °FPartly cloudy.18 mph69%30.12 "HgN/A
5:00 PM72 °FPartly sunny.22 mph61%30.09 "HgN/A
4:00 PM81 °FSunny.17 mph54%30.07 "Hg10 mi
3:00 PM86 °FSunny.8 mph38%30.04 "Hg10 mi
2:00 PM82 °FSunny.13 mph45%30.04 "Hg10 mi
1:00 PM82 °FSunny.16 mph45%30.07 "Hg10 mi
12:00 PM81 °FSunny.20 mph45%30.07 "Hg10 mi
11:00 AM77 °FSunny.9 mph54%30.09 "Hg10 mi
10:00 AM75 °FScattered clouds.16 mph54%30.04 "HgN/A
9:00 AM73 °FSunny.9 mph57%30.15 "Hg10 mi
8:00 AM70 °FPartly sunny.6 mph69%30.15 "HgN/A
7:00 AM70 °FPartly sunny.12 mph73%30.15 "HgN/A
6:00 AM72 °FPassing clouds.9 mph69%30.09 "HgN/A
5:00 AM70 °FSunny.5 mph78%30.04 "Hg10 mi
4:00 AM70 °FClear.5 mph78%30.01 "Hg10 mi
3:00 AM70 °FClear.6 mph78%30.01 "Hg10 mi
2:00 AM70 °FClear.5 mph78%30.01 "Hg10 mi
1:00 AM72 °FClear.5 mph73%30.04 "Hg10 mi
12:00 AM72 °FClear.5 mph73%30.07 "Hg10 mi
11:00 PM
Sep 30
75 °FClear.5 mph65%30.07 "Hg10 mi
10:00 PM75 °FClear.3 mph65%30.09 "Hg4 mi
Weather by CustomWeather, © 2014

See weather overviewHow to use our weather pages